Mammoth, CA

7:05 AM PST on January 22, 2018 (GMT -0800)
Mammoth Yosemite

Weather History for KMMH - November, 2012

Change the Weather History Date:

Wednesday, November 14, 2012

  Actual Average Record
Temperature  
Mean Temperature 35 °F -  
Max Temperature 60 °F 46 °F 71 °F (2016)
Min Temperature 10 °F 31 °F 10 °F (2012)
Degree Days  
Heating Degree Days 30    
Moisture  
Dew Point 9 °F    
Average Humidity 41    
Maximum Humidity 79    
Minimum Humidity 11    
Precipitation  
Precipitation 0.00 in - - ()
Sea Level Pressure  
Sea Level Pressure 30.26 in    
Wind  
Wind Speed 3 mph (WNW)    
Max Wind Speed 14 mph    
Max Gust Speed 23 mph    
Visibility 10 miles    
Events      
Averages and records for this station are not official NWS values.
T = Trace of Precipitation, MM = Missing Value Source: NWS Daily Summary

Daily Weather History Graph

Daily Weather History Graph

Search for Another Location

Airport or City:

Trip Planner

Search our weather history database for the weather conditions in past years. The results will help you decide how hot, cold, wet, or windy it might be!

Date:

Astronomy

Nov. 14, 2012 Rise Set
Actual Time 6:34 AM PST 4:44 PM PST
Civil Twilight 6:06 AM PST 5:12 PM PST
Nautical Twilight 5:35 AM PST 5:44 PM PST
Astronomical Twilight 5:04 AM PST 6:15 PM PST
Moon 7:28 AM PST (11/14) 5:39 PM PST (11/14)
Length of Visible Light 11h 05m
Length of Day
10h 09m
New Moon, 1% of the Moon is Illuminated
Nov 14
New Moon
Nov 20
First Quarter
Nov 28
Full
Dec 6
Last Quarter
Dec 13
New

Hourly Weather History & Observations

Time (PST) Temp. Windchill Dew Point Humidity Pressure Visibility Wind Dir Wind Speed Gust Speed Precip Events Conditions
12:15 AM 21.2 °F - 10.4 °F 63% 30.30 in 10.0 mi Calm Calm - N/A   Clear
12:35 AM 21.2 °F 14.9 °F 10.4 °F 63% 30.30 in 10.0 mi NNW 4.6 mph - N/A   Clear
12:55 AM 19.4 °F 12.8 °F 8.6 °F 63% 30.29 in 10.0 mi North 4.6 mph - N/A   Clear
1:15 AM 19.4 °F - 10.4 °F 68% 30.29 in 10.0 mi Calm Calm - N/A   Clear
1:35 AM 19.4 °F - 10.4 °F 68% 30.29 in 10.0 mi Calm Calm - N/A   Clear
1:55 AM 19.4 °F - 8.6 °F 63% 30.29 in 10.0 mi Calm Calm - N/A   Clear
2:15 AM 17.6 °F 12.3 °F 8.6 °F 68% 30.28 in 10.0 mi NNW 3.5 mph - N/A   Clear
2:35 AM 21.2 °F 16.4 °F 10.4 °F 63% 30.28 in 10.0 mi WNW 3.5 mph - N/A   Clear
2:55 AM 14.0 °F - 5.0 °F 67% 30.28 in 10.0 mi Calm Calm - N/A   Clear
3:15 AM 14.0 °F 8.2 °F 5.0 °F 67% 30.27 in 10.0 mi NNW 3.5 mph - N/A   Clear
3:35 AM 12.2 °F 6.1 °F 5.0 °F 73% 30.27 in 10.0 mi North 3.5 mph - N/A   Clear
3:55 AM 15.8 °F - 6.8 °F 68% 30.28 in 10.0 mi Calm Calm - N/A   Clear
4:15 AM 15.8 °F - 8.6 °F 73% 30.29 in 10.0 mi Calm Calm - N/A   Clear
4:35 AM 14.0 °F - 5.0 °F 67% 30.28 in 10.0 mi Calm Calm - N/A   Clear
4:55 AM 14.0 °F 8.2 °F 5.0 °F 67% 30.28 in 10.0 mi North 3.5 mph - N/A   Clear
5:15 AM 15.8 °F 10.2 °F 8.6 °F 73% 30.27 in 10.0 mi NW 3.5 mph - N/A   Clear
5:35 AM 14.0 °F 8.2 °F 6.8 °F 73% 30.27 in 10.0 mi NNW 3.5 mph - N/A   Clear
5:55 AM 15.8 °F 10.2 °F 6.8 °F 68% 30.27 in 10.0 mi North 3.5 mph - N/A   Clear
6:15 AM 10.4 °F - 5.0 °F 79% 30.27 in 10.0 mi Calm Calm - N/A   Clear
6:35 AM 10.4 °F - 3.2 °F 73% 30.28 in 10.0 mi Calm Calm - N/A   Clear
6:55 AM 10.4 °F 4.0 °F 5.0 °F 79% 30.28 in 10.0 mi NNW 3.5 mph - N/A   Clear
7:15 AM 15.8 °F - 8.6 °F 73% 30.29 in 10.0 mi Calm Calm - N/A   Clear
7:55 AM 24.8 °F - 10.4 °F 54% 30.30 in 10.0 mi Calm Calm - N/A   Clear
8:15 AM 28.4 °F - 10.4 °F 47% 30.30 in 10.0 mi Calm Calm - N/A   Clear
8:35 AM 33.8 °F - 10.4 °F 38% 30.29 in 10.0 mi Calm Calm - N/A   Clear
8:55 AM 35.6 °F 31.7 °F 12.2 °F 38% 30.30 in 10.0 mi SE 4.6 mph - N/A   Clear
9:15 AM 37.4 °F - 12.2 °F 36% 30.29 in 10.0 mi Calm Calm - N/A   Clear
9:35 AM 41.0 °F - 10.4 °F 29% 30.29 in 10.0 mi Calm Calm - N/A   Clear
9:55 AM 44.6 °F 43.1 °F 10.4 °F 25% 30.28 in 10.0 mi SSE 3.5 mph - N/A   Clear
10:15 AM 48.2 °F - 14.0 °F 25% 30.28 in 10.0 mi SE 5.8 mph - N/A   Clear
10:35 AM 50.0 °F - 14.0 °F 24% 30.28 in 10.0 mi SE 5.8 mph - N/A   Clear
10:55 AM 51.8 °F - 12.2 °F 21% 30.27 in 10.0 mi SE 5.8 mph - N/A   Clear
11:15 AM 55.4 °F - 6.8 °F 14% 30.26 in 10.0 mi SE 4.6 mph - N/A   Clear
11:35 AM 57.2 °F - 6.8 °F 13% 30.25 in 10.0 mi ESE 5.8 mph - N/A   Clear
11:55 AM 57.2 °F - 5.0 °F 12% 30.24 in 10.0 mi ESE 5.8 mph - N/A   Clear
12:15 PM 59.0 °F - 5.0 °F 12% 30.24 in 7.0 mi West 12.7 mph 17.3 mph N/A   Clear
12:55 PM 59.0 °F - 5.0 °F 12% 30.22 in 7.0 mi West 13.8 mph 20.7 mph N/A   Clear
1:15 PM 59.0 °F - 5.0 °F 12% 30.22 in 10.0 mi West 13.8 mph 20.7 mph N/A   Clear
1:35 PM 59.0 °F - 5.0 °F 12% 30.21 in 7.0 mi WSW 12.7 mph 23.0 mph N/A   Clear
1:55 PM 59.0 °F - 5.0 °F 12% 30.21 in 10.0 mi West 11.5 mph - N/A   Clear
2:15 PM 60.8 °F - 5.0 °F 11% 30.20 in 10.0 mi West 9.2 mph 17.3 mph N/A   Clear
2:35 PM 60.8 °F - 6.8 °F 12% 30.20 in 10.0 mi West 4.6 mph 17.3 mph N/A   Clear
2:55 PM 59.0 °F - 6.8 °F 13% 30.21 in 7.0 mi West 13.8 mph 21.9 mph N/A   Scattered Clouds
3:15 PM 59.0 °F - 8.6 °F 14% 30.21 in 10.0 mi WNW 11.5 mph - N/A   Clear
3:35 PM 57.2 °F - 6.8 °F 13% 30.21 in 10.0 mi WNW 10.4 mph - N/A   Scattered Clouds
3:55 PM 55.4 °F - 8.6 °F 15% 30.22 in 7.0 mi WNW 11.5 mph - N/A   Mostly Cloudy
4:15 PM 53.6 °F - 8.6 °F 16% 30.21 in 7.0 mi WNW 10.4 mph - N/A   Overcast
4:35 PM 53.6 °F - 10.4 °F 18% 30.21 in 7.0 mi WNW 9.2 mph - N/A   Overcast
4:55 PM 51.8 °F - 10.4 °F 19% 30.21 in 7.0 mi West 6.9 mph - N/A   Overcast
5:15 PM 50.0 °F - 12.2 °F 22% 30.22 in 7.0 mi West 8.1 mph - N/A   Mostly Cloudy
5:35 PM 48.2 °F - 12.2 °F 24% 30.22 in 10.0 mi Calm Calm - N/A   Mostly Cloudy
5:55 PM 46.4 °F 44.3 °F 8.6 °F 22% 30.22 in 10.0 mi ESE 4.6 mph - N/A   Mostly Cloudy
6:15 PM 42.8 °F 40.1 °F 8.6 °F 25% 30.23 in 10.0 mi ESE 4.6 mph - N/A   Clear
6:35 PM 39.2 °F 35.9 °F 8.6 °F 28% 30.23 in 10.0 mi SSE 4.6 mph - N/A   Clear
6:55 PM 37.4 °F - 6.8 °F 28% 30.23 in 10.0 mi Calm Calm - N/A   Clear
7:15 PM 35.6 °F - 6.8 °F 30% 30.23 in 10.0 mi Calm Calm - N/A   Clear
7:35 PM 33.8 °F 30.8 °F 6.8 °F 32% 30.24 in 10.0 mi NW 3.5 mph - N/A   Clear
7:55 PM 33.8 °F - 8.6 °F 35% 30.25 in 10.0 mi Calm Calm - N/A   Clear
8:15 PM 33.8 °F - 10.4 °F 38% 30.25 in 10.0 mi Calm Calm - N/A   Mostly Cloudy
8:35 PM 32.0 °F - 10.4 °F 41% 30.25 in 10.0 mi North - - N/A   Overcast
8:55 PM 30.2 °F 25.4 °F 8.6 °F 40% 30.25 in 10.0 mi North 4.6 mph - N/A   Overcast
9:15 PM 32.0 °F - 12.2 °F 44% 30.26 in 10.0 mi Calm Calm - N/A   Mostly Cloudy
9:35 PM 32.0 °F - 12.2 °F 44% 30.26 in 10.0 mi Calm Calm - N/A   Overcast
9:55 PM 32.0 °F - 14.0 °F 48% 30.26 in 10.0 mi Calm Calm - N/A   Overcast
10:15 PM 32.0 °F - 14.0 °F 48% 30.26 in 10.0 mi Calm Calm - N/A   Overcast
10:35 PM 30.2 °F - 14.0 °F 51% 30.25 in 10.0 mi Calm Calm - N/A   Overcast
10:55 PM 30.2 °F - 14.0 °F 51% 30.25 in 10.0 mi Calm Calm - N/A   Overcast
11:15 PM 32.0 °F - 14.0 °F 48% 30.25 in 10.0 mi Calm Calm - N/A   Overcast
11:35 PM 30.2 °F - 14.0 °F 51% 30.25 in 10.0 mi Calm Calm - N/A   Mostly Cloudy
11:55 PM 30.2 °F - 14.0 °F 51% 30.25 in 10.0 mi Calm Calm - N/A   Scattered Clouds